Regional Weather Roundup
Issued by NWS Raleigh/Durham, NC

Home | Current Version | Previous Version | Text Only | Print | Product List | Glossary On
Versions: 1 2 3 4 5 6 7 8 9 10 11 12 13 14 15 16 17 18 19 20 21 22 23 24 25 26 27
000
ASUS42 KRAH 240510
RWRRAH
NORTH CAROLINA WEATHER ROUNDUP
NATIONAL WEATHER SERVICE RALEIGH NC
100 AM EDT TUE APR 24 2018

NOTE: "FAIR" INDICATES FEW OR NO CLOUDS BELOW 12,000 FEET WITH NO
SIGNIFICANT WEATHER AND/OR OBSTRUCTIONS TO VISIBILITY.

NCZ001-053-055-056-065-067-240600-
WESTERN NORTH CAROLINA

CITY           SKY/WX    TMP DP  RH WIND       PRES   REMARKS
ASHEVILLE      LGT RAIN  54  50  86 E10G18    30.00F
JEFFERSON      RAIN      46  46  97 E15       30.10F
MORGANTON      RAIN      53  53 100 E3        30.10F
HICKORY        LGT RAIN  53  52  96 NE10      30.06F FOG
RUTHERFORDTON  DRIZZLE   54  54 100 E14G21    30.04S
MOUNT AIRY     LGT RAIN  54  50  85 E15G23    30.16F
BOONE          RAIN      46  46 100 E12G21    30.08F
$$

NCZ021-022-025-041-071-084-088-240600-
CENTRAL NORTH CAROLINA

CITY           SKY/WX    TMP DP  RH WIND       PRES   REMARKS
CHARLOTTE      CLOUDY    58  56  93 E15G25    30.03F
GREENSBORO     RAIN      53  52  96 E14       30.13R FOG
WINSTON-SALEM  LGT RAIN  54  52  93 E12G25    30.14F
RALEIGH-DURHAM LGT RAIN  58  49  72 E16G28    30.16F
FORT BRAGG     LGT RAIN  58  57  95 E13       30.10S
FAYETTEVILLE   CLOUDY    59  56  89 E13G20    30.09S
BURLINGTON     RAIN      54  52  93 NE6       30.15F
LAURINBURG     RAIN      59  58  96 E14G23    30.06F FOG
$$

NCZ011-015-027-028-043-044-047-080-103-240600-
NORTHEASTERN NORTH CAROLINA

CITY           SKY/WX    TMP DP  RH WIND       PRES   REMARKS
ROCKY MT-WILSO CLOUDY    60  46  59 E8        30.20F
GREENVILLE     FAIR      61  48  63 E9        30.21F
WASHINGTON     CLOUDY    61  50  68 E10       30.21F
ELIZABETH CITY FAIR      59  50  72 E12       30.27F
MANTEO         FAIR      60  48  65 SE13      30.28F
CAPE HATTERAS  FAIR      65  56  72 SE18      30.24F
$$

NCZ078-087-090-091-093-098-101-240600-
SOUTHEASTERN NORTH CAROLINA

CITY           SKY/WX    TMP DP  RH WIND       PRES   REMARKS
LUMBERTON      RAIN      61  60  97 E13G21    30.05F FOG
GOLDSBORO      MOCLDY    60  52  76 E10       30.15F
KINSTON        CLOUDY    63  52  66 E9        30.18F
KENANSVILLE    DRIZZLE   61  55  82 E8        30.15F
NEW BERN       LGT RAIN  63  56  78 E8        30.19F
CHERRY POINT   RAIN      64  59  82 SE12      30.19F
BEAUFORT       LGT RAIN  63  59  87 SE12G22   30.18F
JACKSONVILLE   CLOUDY    64  59  83 SE15G26   30.15S
WILMINGTON     LGT RAIN  64  60  87 SE15G22   30.11F
$$





USA.gov is the U.S. government's official web portal to all federal, state and local government web resources and services.